カタログに戻る

FENGYUN 1C DEB

運用中PO
NORAD 37053·DEBRIS·🇨🇳 China

打ち上げ May 10, 1999 から Taiyuan Satellite Launch Center

Loading…

次のパス (今後24時間)

TLE

最新Source: Space-Track

元期: Sep 14, 2026, 05:26 UTC

1 37053U 99025EEM 26257.22657587  .00003511  00000-0  78631-3 0  9995
2 37053  99.1613  34.3568 0040370  63.5125  55.9954 14.56890249690453

AllMySatでFENGYUN 1C DEBをリアルタイム追跡

Download on the App Store